Date,TemperatureHighF,TemperatureAvgF,TemperatureLowF,DewpointHighF,DewpointAvgF,DewpointLowF,HumidityHigh,HumidityAvg,HumidityLow,PressureMaxIn,PressureMinIn,WindSpeedMaxMPH,WindSpeedAvgMPH,GustSpeedMaxMPH,PrecipitationSumIn
2013-3-1,67,43,32,19,16,12,54,36,16,29.96,29.85,13,3,13,0.00
2013-3-2,60,40,34,31,20,12,58,44,27,29.91,29.82,15,3,15,0.00
2013-3-3,64,40,32,17,11,3,51,31,16,30.02,29.88,15,4,15,0.00
2013-3-4,78,45,26,22,13,7,51,30,13,30.79,30.02,9,2,10,0.00
2013-3-5,71,55,40,56,30,16,86,41,26,31.62,30.70,25,4,25,0.28
2013-3-6,60,43,35,22,13,6,50,30,17,31.62,31.62,24,7,25,0.00
2013-3-7,76,45,30,27,20,12,76,42,13,31.62,30.17,12,1,12,0.00
2013-3-8,76,48,33,27,18,10,59,33,13,31.62,30.32,11,2,13,0.00
2013-3-9,85,52,35,25,19,13,59,31,11,31.62,27.22,8,1,8,0.00
2013-3-10,82,58,44,39,28,23,56,35,14,0.00,40.00,6,2,8,0.00
2013-3-11,72,60,48,47,37,32,57,43,24,18.33,18.33,14,3,14,0.00
2013-3-12,80,61,51,58,37,15,90,50,14,18.33,18.33,15,3,15,0.24
2013-3-13,70,52,40,22,16,5,45,25,15,18.33,18.33,26,5,26,0.00
2013-3-14,66,45,32,16,10,4,42,25,16,18.33,18.33,13,3,13,0.00
2013-3-15,83,56,35,25,16,6,42,22,12,18.33,18.33,15,3,17,0.00
2013-3-16,86,67,54,30,25,18,38,23,11,18.33,18.33,17,4,18,0.00
2013-3-17,79,66,57,46,36,27,56,34,18,18.33,18.33,14,4,14,0.00
2013-3-18,79,61,49,54,46,41,93,59,29,18.33,18.33,32,2,32,0.79
2013-3-19,81,59,49,50,33,11,95,52,12,18.33,18.33,16,3,16,0.04
2013-3-20,68,54,44,19,13,8,29,20,15,18.33,18.33,11,1,11,0.00
2013-3-21,62,46,37,15,9,4,35,22,16,18.33,18.33,17,5,18,0.00
2013-3-22,59,45,36,22,10,2,36,23,17,18.33,18.33,7,1,7,0.79
2013-3-23,60,50,45,48,35,19,85,59,31,41.51,18.33,10,1,10,0.35
2013-3-24,51,49,47,49,45,40,94,87,71,41.48,40.00,0,0,0,1.77
2013-3-25,56,45,38,45,16,4,91,34,18,41.63,40.00,22,6,22,0.00
2013-3-26,52,41,33,15,12,9,45,31,21,41.63,40.00,17,3,17,0.00
2013-3-27,62,44,30,18,14,9,59,33,16,41.84,29.94,13,3,14,0.00
2013-3-28,69,49,32,20,15,11,56,28,15,29.94,29.94,14,2,14,0.79
2013-3-29,78,54,36,23,17,12,44,25,13,29.94,29.94,10,1,10,0.00
2013-3-30,79,63,50,34,28,18,51,28,15,29.94,29.94,10,2,12,0.00
2013-3-31,81,67,60,56,42,31,74,42,17,29.94,29.94,17,4,22,0.04